Home > Time Zones > World Clock > Weather > Qatar > Doha > Past weeks

Flag for Qatar Weather past 2 weeks in Doha, Qatar

Now
91 °F

Sunny.


Feels Like: 89 °F
Forecast: 84 / 103 °F
Wind: 12 mph from North

Location: Doha International Airport


UV Index: 7 (High)

Visibility: 10 mi


Pressure: 29.86 "Hg

Humidity: 26%

Dew point: 52 °F

Location of DohaLocation

Historic Weather in Doha

°F

Doha temperature yesterday

Maximum temperature yesterday: 97 °F (at 1:00 PM)
Minimum temperature yesterday: 81 °F (at 6:00 AM)
Average temperature yesterday: 89 °F

Past Weeks' High & Low Weather Summary

 TemperatureHumidityPressure
High102 °F (Apr 15, 1:30 PM)88% (Apr 8, 3:00 AM)30.12 "Hg (Apr 8, 3:00 AM)
Low68 °F (Apr 7, 3:00 AM)11% (Apr 5, 2:30 PM)29.59 "Hg (Apr 2, 6:30 PM)
Average81 °F42%29.92 "Hg
* Reported Apr 2 7:00 AM — Apr 17 7:00 AM, Doha, Weather by CustomWeather, © 2014

Note: Actual official high and low records may vary slightly from our data, if they occured in-between our weather recording intervals... More about our weather records

Advertising

Historic Weather Conditions — Data for Previous 24 hours

 ConditionsComfort  
Time TempWeatherWind HumidityBarometerVisibility
7:00 AM
Apr 17
88 °FPassing clouds.6 mph35%29.83 "HgN/A
6:00 AM84 °FPassing clouds.5 mph37%29.83 "HgN/A
5:00 AM84 °FPassing clouds.3 mph35%29.80 "HgN/A
4:00 AM86 °FPassing clouds.5 mph31%29.80 "HgN/A
3:00 AM88 °FClear.6 mph27%29.80 "Hg10 mi
2:00 AM88 °FClear.2 mph31%29.80 "Hg10 mi
1:00 AM86 °FClear.6 mph38%29.83 "Hg10 mi
12:00 AM86 °FClear.3 mph38%29.83 "Hg10 mi
11:00 PM
Apr 16
88 °FClear.8 mph40%29.86 "Hg10 mi
10:00 PM88 °FClear.6 mph38%29.86 "Hg10 mi
9:00 PM88 °FClear.8 mph38%29.86 "Hg10 mi
8:00 PM88 °FClear.7 mph40%29.86 "Hg10 mi
7:00 PM88 °FClear.7 mph40%29.86 "Hg10 mi
4:00 PM93 °FSunny.10 mph26%29.83 "Hg10 mi
3:00 PM97 °FSunny.10 mph19%29.83 "Hg10 mi
2:00 PM97 °FPassing clouds.12 mph14%29.86 "HgN/A
1:00 PM97 °FSunny.12 mph17%29.86 "Hg10 mi
12:00 PM95 °FPassing clouds.10 mph16%29.89 "HgN/A
11:00 AM95 °FSunny.12 mph20%29.89 "Hg10 mi
10:00 AM91 °FPassing clouds.10 mph32%29.92 "HgN/A
9:00 AM91 °FPassing clouds.3 mph36%29.89 "HgN/A
8:00 AM88 °FSunny.1 mph43%29.89 "Hg10 mi
Weather by CustomWeather, © 2014

See weather overview